Year,Month,Day,Hour,Minute,Value (Times are PST for temperature in C)
2015,06,13,00,00,13.10
2015,06,13,00,01,13.10
2015,06,13,00,02,13.10
2015,06,13,00,03,13.10
2015,06,13,00,04,13.10
2015,06,13,00,05,13.10
2015,06,13,00,06,13.10
2015,06,13,00,07,13.10
2015,06,13,00,08,13.10
2015,06,13,00,09,13.10
2015,06,13,00,10,13.20
2015,06,13,00,11,13.20
2015,06,13,00,12,13.20
2015,06,13,00,13,13.20
2015,06,13,00,14,13.20
2015,06,13,00,15,13.20
2015,06,13,00,16,13.20
2015,06,13,00,17,13.20
2015,06,13,00,18,13.10
2015,06,13,00,19,13.10
2015,06,13,00,20,13.10
2015,06,13,00,21,13.10
2015,06,13,00,22,13.10
2015,06,13,00,23,13.10
2015,06,13,00,24,13.00
2015,06,13,00,25,13.00
2015,06,13,00,26,13.00
2015,06,13,00,27,13.00
2015,06,13,00,28,12.90
2015,06,13,00,29,12.90
2015,06,13,00,30,12.90
2015,06,13,00,31,12.90
2015,06,13,00,32,12.90
2015,06,13,00,33,12.80
2015,06,13,00,34,12.80
2015,06,13,00,35,12.80
2015,06,13,00,36,12.80
2015,06,13,00,37,12.80
2015,06,13,00,38,12.70
2015,06,13,00,39,12.70
2015,06,13,00,40,12.70
2015,06,13,00,41,12.60
2015,06,13,00,42,12.60
2015,06,13,00,43,12.60
2015,06,13,00,44,12.50
2015,06,13,00,45,12.50
2015,06,13,00,46,12.50
2015,06,13,00,47,12.50
2015,06,13,00,48,12.40
2015,06,13,00,49,12.40
2015,06,13,00,50,12.40
2015,06,13,00,51,12.30
2015,06,13,00,52,12.30
2015,06,13,00,53,12.30
2015,06,13,00,54,12.30
2015,06,13,00,55,12.30
2015,06,13,00,56,12.20
2015,06,13,00,57,12.20
2015,06,13,00,58,12.20
2015,06,13,00,59,12.20
2015,06,13,01,00,12.10
2015,06,13,01,01,12.10
2015,06,13,01,02,12.10
2015,06,13,01,03,12.10
2015,06,13,01,04,12.10
2015,06,13,01,05,12.10
2015,06,13,01,06,12.10
2015,06,13,01,07,12.10
2015,06,13,01,08,12.10
2015,06,13,01,09,12.10
2015,06,13,01,10,12.00
2015,06,13,01,11,12.00
2015,06,13,01,12,12.00
2015,06,13,01,13,12.00
2015,06,13,01,14,11.90
2015,06,13,01,15,11.90
2015,06,13,01,16,11.90
2015,06,13,01,17,11.90
2015,06,13,01,18,11.90
2015,06,13,01,19,11.90
2015,06,13,01,20,11.90
2015,06,13,01,21,11.90
2015,06,13,01,22,11.90
2015,06,13,01,23,11.90
2015,06,13,01,24,11.90
2015,06,13,01,25,11.80
2015,06,13,01,26,11.80
2015,06,13,01,27,11.80
2015,06,13,01,28,11.80
2015,06,13,01,29,11.80
2015,06,13,01,30,11.80
2015,06,13,01,31,11.70
2015,06,13,01,32,11.70
2015,06,13,01,33,11.70
2015,06,13,01,34,11.70
2015,06,13,01,35,11.70
2015,06,13,01,36,11.70
2015,06,13,01,37,11.60
2015,06,13,01,38,11.60
2015,06,13,01,39,11.60
2015,06,13,01,40,11.60
2015,06,13,01,41,11.60
2015,06,13,01,42,11.60
2015,06,13,01,43,11.50
2015,06,13,01,44,11.50
2015,06,13,01,49,11.40
2015,06,13,01,50,11.40
2015,06,13,01,51,11.40
2015,06,13,01,52,11.40
2015,06,13,01,53,11.50
2015,06,13,01,54,11.50
2015,06,13,01,55,11.50
2015,06,13,01,56,11.60
2015,06,13,01,57,11.60
2015,06,13,01,58,11.60
2015,06,13,01,59,11.60
2015,06,13,02,00,11.60
2015,06,13,02,01,11.60
2015,06,13,02,02,11.60
2015,06,13,02,03,11.60
2015,06,13,02,04,11.60
2015,06,13,02,05,11.60
2015,06,13,02,06,11.60
2015,06,13,02,07,11.60
2015,06,13,02,08,11.60
2015,06,13,02,09,11.60
2015,06,13,02,10,11.60
2015,06,13,02,11,11.70
2015,06,13,02,12,11.70
2015,06,13,02,13,11.70
2015,06,13,02,14,11.70
2015,06,13,02,15,11.70
2015,06,13,02,16,11.70
2015,06,13,02,17,11.80
2015,06,13,02,18,11.80
2015,06,13,02,19,11.80
2015,06,13,02,20,11.80
2015,06,13,02,21,11.80
2015,06,13,02,22,11.80
2015,06,13,02,23,11.80
2015,06,13,02,24,11.70
2015,06,13,02,25,11.70
2015,06,13,02,26,11.70
2015,06,13,02,27,11.70
2015,06,13,02,28,11.70
2015,06,13,02,29,11.70
2015,06,13,02,30,11.70
2015,06,13,02,31,11.60
2015,06,13,02,32,11.60
2015,06,13,02,33,11.60
2015,06,13,02,34,11.60
2015,06,13,02,35,11.60
2015,06,13,02,36,11.60
2015,06,13,02,37,11.60
2015,06,13,02,38,11.60
2015,06,13,02,39,11.60
2015,06,13,02,40,11.60
2015,06,13,02,41,11.60
2015,06,13,02,42,11.60
2015,06,13,02,43,11.60
2015,06,13,02,44,11.60
2015,06,13,02,45,11.60
2015,06,13,02,46,11.60
2015,06,13,02,47,11.50
2015,06,13,02,48,11.50
2015,06,13,02,49,11.50
2015,06,13,02,50,11.50
2015,06,13,02,51,11.50
2015,06,13,02,52,11.40
2015,06,13,02,53,11.40
2015,06,13,02,54,11.40
2015,06,13,02,55,11.40
2015,06,13,02,56,11.40
2015,06,13,02,57,11.40
2015,06,13,02,58,11.40
2015,06,13,02,59,11.40
2015,06,13,03,00,11.40
2015,06,13,03,01,11.40
2015,06,13,03,02,11.40
2015,06,13,03,03,11.40
2015,06,13,03,04,11.30
2015,06,13,03,05,11.30
2015,06,13,03,06,11.30
2015,06,13,03,07,11.30
2015,06,13,03,08,11.30
2015,06,13,03,09,11.30
2015,06,13,03,10,11.30
2015,06,13,03,11,11.30
2015,06,13,03,12,11.30
2015,06,13,03,13,11.30
2015,06,13,03,14,11.30
2015,06,13,03,15,11.30
2015,06,13,03,16,11.30
2015,06,13,03,17,11.30
2015,06,13,03,18,11.30
2015,06,13,03,19,11.30
2015,06,13,03,20,11.30
2015,06,13,03,21,11.30
2015,06,13,03,22,11.30
2015,06,13,03,23,11.30
2015,06,13,03,24,11.30
2015,06,13,03,25,11.30
2015,06,13,03,26,11.30
2015,06,13,03,27,11.30
2015,06,13,03,28,11.30
2015,06,13,03,29,11.30
2015,06,13,03,30,11.30
2015,06,13,03,31,11.30
2015,06,13,03,32,11.30
2015,06,13,03,33,11.30
2015,06,13,03,34,11.30
2015,06,13,03,35,11.30
2015,06,13,03,36,11.30
2015,06,13,03,37,11.30
2015,06,13,03,38,11.30
2015,06,13,03,39,11.30
2015,06,13,03,40,11.30
2015,06,13,03,41,11.20
2015,06,13,03,42,11.20
2015,06,13,03,43,11.20
2015,06,13,03,44,11.20
2015,06,13,03,45,11.20
2015,06,13,03,46,11.20
2015,06,13,03,47,11.20
2015,06,13,03,48,11.10
2015,06,13,03,49,11.10
2015,06,13,03,50,11.10
2015,06,13,03,51,11.00
2015,06,13,03,52,11.00
2015,06,13,03,53,10.90
2015,06,13,03,54,10.90
2015,06,13,03,55,10.90
2015,06,13,03,56,10.90
2015,06,13,03,57,10.90
2015,06,13,03,58,10.80
2015,06,13,03,59,10.80
2015,06,13,04,00,10.80
2015,06,13,04,01,10.80
2015,06,13,04,02,10.80
2015,06,13,04,03,10.80
2015,06,13,04,04,10.80
2015,06,13,04,05,10.80
2015,06,13,04,06,10.80
2015,06,13,04,07,10.80
2015,06,13,04,08,10.80
2015,06,13,04,09,10.80
2015,06,13,04,10,10.80
2015,06,13,04,11,10.80
2015,06,13,04,12,10.80
2015,06,13,04,13,10.80
2015,06,13,04,14,10.80
2015,06,13,04,15,10.80
2015,06,13,04,16,10.80
2015,06,13,04,17,10.80
2015,06,13,04,18,10.80
2015,06,13,04,19,10.80
2015,06,13,04,20,10.80
2015,06,13,04,21,10.80
2015,06,13,04,22,10.80
2015,06,13,04,23,10.80
2015,06,13,04,24,10.80
2015,06,13,04,25,10.80
2015,06,13,04,26,10.80
2015,06,13,04,27,10.80
2015,06,13,04,28,10.70
2015,06,13,04,29,10.70
2015,06,13,04,30,10.70
2015,06,13,04,31,10.70
2015,06,13,04,32,10.70
2015,06,13,04,33,10.70
2015,06,13,04,34,10.70
2015,06,13,04,35,10.70
2015,06,13,04,36,10.70
2015,06,13,04,37,10.70
2015,06,13,04,38,10.70
2015,06,13,04,39,10.70
2015,06,13,04,40,10.70
2015,06,13,04,41,10.70
2015,06,13,04,42,10.70
2015,06,13,04,43,10.70
2015,06,13,04,44,10.70
2015,06,13,04,45,10.70
2015,06,13,04,46,10.70
2015,06,13,04,47,10.70
2015,06,13,04,48,10.70
2015,06,13,04,49,10.70
2015,06,13,04,50,10.70
2015,06,13,04,51,10.70
2015,06,13,04,52,10.70
2015,06,13,04,53,10.70
2015,06,13,04,54,10.70
2015,06,13,04,55,10.70
2015,06,13,04,56,10.70
2015,06,13,04,57,10.70
2015,06,13,04,58,10.70
2015,06,13,04,59,10.70
2015,06,13,05,00,10.70
2015,06,13,05,01,10.70
2015,06,13,05,02,10.60
2015,06,13,05,03,10.60
2015,06,13,05,04,10.60
2015,06,13,05,05,10.60
2015,06,13,05,06,10.60
2015,06,13,05,07,10.60
2015,06,13,05,08,10.50
2015,06,13,05,09,10.50
2015,06,13,05,10,10.50
2015,06,13,05,11,10.50
2015,06,13,05,12,10.50
2015,06,13,05,13,10.50
2015,06,13,05,14,10.50
2015,06,13,05,15,10.50
2015,06,13,05,16,10.40
2015,06,13,05,17,10.40
2015,06,13,05,18,10.40
2015,06,13,05,19,10.40
2015,06,13,05,20,10.40
2015,06,13,05,21,10.40
2015,06,13,05,22,10.40
2015,06,13,05,23,10.40
2015,06,13,05,24,10.30
2015,06,13,05,25,10.30
2015,06,13,05,26,10.30
2015,06,13,05,27,10.30
2015,06,13,05,28,10.30
2015,06,13,05,29,10.30
2015,06,13,05,30,10.30
2015,06,13,05,31,10.20
2015,06,13,05,32,10.20
2015,06,13,05,33,10.20
2015,06,13,05,34,10.30
2015,06,13,05,35,10.30
2015,06,13,05,36,10.30
2015,06,13,05,37,10.30
2015,06,13,05,38,10.30
2015,06,13,05,39,10.30
2015,06,13,05,40,10.30
2015,06,13,05,41,10.30
2015,06,13,05,42,10.30
2015,06,13,05,43,10.30
2015,06,13,05,44,10.30
2015,06,13,05,45,10.40
2015,06,13,05,46,10.40
2015,06,13,05,47,10.40
2015,06,13,05,48,10.50
2015,06,13,05,49,10.50
2015,06,13,05,50,10.50
2015,06,13,05,51,10.50
2015,06,13,05,52,10.60
2015,06,13,05,53,10.60
2015,06,13,05,54,10.60
2015,06,13,05,55,10.60
2015,06,13,05,56,10.60
2015,06,13,05,57,10.60
2015,06,13,05,58,10.60
2015,06,13,05,59,10.60
2015,06,13,06,00,10.70
2015,06,13,06,01,10.70
2015,06,13,06,02,10.70
2015,06,13,06,03,10.70
2015,06,13,06,04,10.70
2015,06,13,06,05,10.70
2015,06,13,06,06,10.70
2015,06,13,06,07,10.70
2015,06,13,06,08,10.70
2015,06,13,06,09,10.70
2015,06,13,06,10,10.70
2015,06,13,06,11,10.70
2015,06,13,06,12,10.70
2015,06,13,06,13,10.70
2015,06,13,06,14,10.70
2015,06,13,06,15,10.70
2015,06,13,06,16,10.70
2015,06,13,06,17,10.70
2015,06,13,06,18,10.80
2015,06,13,06,19,10.80
2015,06,13,06,20,10.80
2015,06,13,06,21,10.80
2015,06,13,06,22,10.80
2015,06,13,06,23,10.80
2015,06,13,06,24,10.80
2015,06,13,06,25,10.90
2015,06,13,06,26,10.90
2015,06,13,06,27,10.90
2015,06,13,06,28,10.90
2015,06,13,06,29,11.00
2015,06,13,06,30,11.00
2015,06,13,06,31,11.10
2015,06,13,06,32,11.10
2015,06,13,06,33,11.10
2015,06,13,06,34,11.10
2015,06,13,06,35,11.10
2015,06,13,06,36,11.10
2015,06,13,06,37,11.20
2015,06,13,06,38,11.20
2015,06,13,06,39,11.20
2015,06,13,06,40,11.20
2015,06,13,06,41,11.20
2015,06,13,06,42,11.20
2015,06,13,06,43,11.20
2015,06,13,06,44,11.20
2015,06,13,06,45,11.30
2015,06,13,06,46,11.30
2015,06,13,06,47,11.30
2015,06,13,06,48,11.30
2015,06,13,06,49,11.30
2015,06,13,06,50,11.40
2015,06,13,06,51,11.40
2015,06,13,06,52,11.40
2015,06,13,06,53,11.40
2015,06,13,06,54,11.40
2015,06,13,06,55,11.40
2015,06,13,06,56,11.50
2015,06,13,06,57,11.50
2015,06,13,06,58,11.50
2015,06,13,06,59,11.50
2015,06,13,07,00,11.60
2015,06,13,07,01,11.60
2015,06,13,07,02,11.60
2015,06,13,07,03,11.60
2015,06,13,07,04,11.60
2015,06,13,07,05,11.60
2015,06,13,07,06,11.60
2015,06,13,07,07,11.60
2015,06,13,07,08,11.60
2015,06,13,07,09,11.70
2015,06,13,07,10,11.70
2015,06,13,07,11,11.70
2015,06,13,07,12,11.70
2015,06,13,07,13,11.70
2015,06,13,07,14,11.70
2015,06,13,07,15,11.70
2015,06,13,07,16,11.70
2015,06,13,07,17,11.70
2015,06,13,07,18,11.70
2015,06,13,07,19,11.70
2015,06,13,07,20,11.70
2015,06,13,07,21,11.70
2015,06,13,07,22,11.70
2015,06,13,07,23,11.70
2015,06,13,07,24,11.70
2015,06,13,07,25,11.70
2015,06,13,07,26,11.70
2015,06,13,07,27,11.70
2015,06,13,07,28,11.70
2015,06,13,07,29,11.70
2015,06,13,07,30,11.70
2015,06,13,07,31,11.70
2015,06,13,07,32,11.70
2015,06,13,07,33,11.70
2015,06,13,07,34,11.70
2015,06,13,07,35,11.70
2015,06,13,07,36,11.70
2015,06,13,07,37,11.80
2015,06,13,07,38,11.80
2015,06,13,07,39,11.80
2015,06,13,07,40,11.80
2015,06,13,07,41,11.80
2015,06,13,07,42,11.80
2015,06,13,07,43,11.80
2015,06,13,07,44,11.80
2015,06,13,07,45,11.80
2015,06,13,07,46,11.80
2015,06,13,07,47,11.80
2015,06,13,07,48,11.80
2015,06,13,07,49,11.90
2015,06,13,07,50,11.90
2015,06,13,07,51,11.90
2015,06,13,07,52,11.90
2015,06,13,07,53,11.90
2015,06,13,07,54,11.90
2015,06,13,07,55,11.90
2015,06,13,07,56,12.00
2015,06,13,07,57,12.00
2015,06,13,07,58,12.00
2015,06,13,07,59,12.00
2015,06,13,08,00,12.00
2015,06,13,08,01,12.00
2015,06,13,08,02,12.00
2015,06,13,08,03,12.00
2015,06,13,08,04,12.00
2015,06,13,08,05,11.90
2015,06,13,08,06,11.90
2015,06,13,08,07,11.90
2015,06,13,08,08,11.90
2015,06,13,08,09,11.90
2015,06,13,08,10,11.90
2015,06,13,08,11,11.90
2015,06,13,08,12,11.90
2015,06,13,08,13,11.90
2015,06,13,08,14,12.00
2015,06,13,08,15,12.00
2015,06,13,08,16,12.00
2015,06,13,08,17,12.00
2015,06,13,08,18,12.00
2015,06,13,08,19,12.00
2015,06,13,08,20,12.10
2015,06,13,08,21,12.10
2015,06,13,08,22,12.10
2015,06,13,08,23,12.10
2015,06,13,08,24,12.10
2015,06,13,08,25,12.10
2015,06,13,08,26,12.10
2015,06,13,08,27,12.10
2015,06,13,08,28,12.10
2015,06,13,08,29,12.20
2015,06,13,08,30,12.20
2015,06,13,08,31,12.20
2015,06,13,08,32,12.20
2015,06,13,08,33,12.20
2015,06,13,08,34,12.20
2015,06,13,08,35,12.20
2015,06,13,08,36,12.20
2015,06,13,08,37,12.30
2015,06,13,08,38,12.30
2015,06,13,08,39,12.30
2015,06,13,08,40,12.30
2015,06,13,08,41,12.30
2015,06,13,08,42,12.30
2015,06,13,08,43,12.30
2015,06,13,08,44,12.30
2015,06,13,08,45,12.30
2015,06,13,08,46,12.30
2015,06,13,08,47,12.40
2015,06,13,08,48,12.40
2015,06,13,08,49,12.40
2015,06,13,08,50,12.40
2015,06,13,08,51,12.40
2015,06,13,08,52,12.50
2015,06,13,08,53,12.50
2015,06,13,08,54,12.50
2015,06,13,08,55,12.60
2015,06,13,08,56,12.60
2015,06,13,08,57,12.60
2015,06,13,08,58,12.60
2015,06,13,08,59,12.60
2015,06,13,09,00,12.60
2015,06,13,09,01,12.60
2015,06,13,09,02,12.70
2015,06,13,09,03,12.70
2015,06,13,09,04,12.70
2015,06,13,09,05,12.70
2015,06,13,09,06,12.70
2015,06,13,09,07,12.80
2015,06,13,09,08,12.80
2015,06,13,09,09,12.80
2015,06,13,09,10,12.90
2015,06,13,09,11,13.00
2015,06,13,09,12,13.00
2015,06,13,09,13,13.10
2015,06,13,09,14,13.10
2015,06,13,09,15,13.20
2015,06,13,09,16,13.20
2015,06,13,09,17,13.30
2015,06,13,09,18,13.30
2015,06,13,09,19,13.30
2015,06,13,09,20,13.40
2015,06,13,09,21,13.40
2015,06,13,09,22,13.50
2015,06,13,09,23,13.50
2015,06,13,09,24,13.60
2015,06,13,09,25,13.60
2015,06,13,09,26,13.70
2015,06,13,09,27,13.70
2015,06,13,09,28,13.70
2015,06,13,09,29,13.70
2015,06,13,09,30,13.80
2015,06,13,09,31,13.80
2015,06,13,09,32,13.90
2015,06,13,09,33,14.00
2015,06,13,09,34,14.10
2015,06,13,09,35,14.10
2015,06,13,09,36,14.20
2015,06,13,09,37,14.20
2015,06,13,09,38,14.30
2015,06,13,09,39,14.40
2015,06,13,09,40,14.40
2015,06,13,09,41,14.40
2015,06,13,09,42,14.40
2015,06,13,09,43,14.40
2015,06,13,09,44,14.50
2015,06,13,09,45,14.50
2015,06,13,09,46,14.60
2015,06,13,09,47,14.60
2015,06,13,09,48,14.60
2015,06,13,09,49,14.60
2015,06,13,09,50,14.70
2015,06,13,09,51,14.80
2015,06,13,09,52,14.80
2015,06,13,09,53,14.80
2015,06,13,09,54,14.80
2015,06,13,09,55,14.80
2015,06,13,09,56,14.70
2015,06,13,09,57,14.70
2015,06,13,09,58,14.70
2015,06,13,09,59,14.70
2015,06,13,10,00,14.80
2015,06,13,10,01,14.90
2015,06,13,10,02,14.90
2015,06,13,10,03,15.00
2015,06,13,10,04,15.00
2015,06,13,10,05,15.00
2015,06,13,10,06,15.00
2015,06,13,10,07,15.00
2015,06,13,10,08,15.00
2015,06,13,10,09,15.00
2015,06,13,10,10,15.20
2015,06,13,10,11,15.20
2015,06,13,10,12,15.30
2015,06,13,10,13,15.30
2015,06,13,10,14,15.30
2015,06,13,10,15,15.30
2015,06,13,10,16,15.40
2015,06,13,10,17,15.40
2015,06,13,10,18,15.40
2015,06,13,10,19,15.50
2015,06,13,10,20,15.50
2015,06,13,10,21,15.60
2015,06,13,10,22,15.60
2015,06,13,10,23,15.70
2015,06,13,10,24,15.70
2015,06,13,10,25,15.80
2015,06,13,10,26,15.80
2015,06,13,10,27,15.80
2015,06,13,10,28,15.80
2015,06,13,10,29,15.80
2015,06,13,10,30,15.70
2015,06,13,10,31,15.70
2015,06,13,10,32,15.80
2015,06,13,10,33,15.80
2015,06,13,10,34,15.80
2015,06,13,10,35,15.90
2015,06,13,10,36,16.00
2015,06,13,10,37,16.00
2015,06,13,10,38,16.00
2015,06,13,10,39,16.10
2015,06,13,10,40,16.20
2015,06,13,10,41,16.20
2015,06,13,10,42,16.30
2015,06,13,10,43,16.30
2015,06,13,10,44,16.30
2015,06,13,10,45,16.30
2015,06,13,10,46,16.30
2015,06,13,10,47,16.30
2015,06,13,10,48,16.20
2015,06,13,10,49,16.20
2015,06,13,10,50,16.20
2015,06,13,10,51,16.10
2015,06,13,10,52,16.10
2015,06,13,10,53,16.10
2015,06,13,10,54,16.10
2015,06,13,10,55,16.20
2015,06,13,10,56,16.30
2015,06,13,10,57,16.40
2015,06,13,10,58,16.40
2015,06,13,10,59,16.40
2015,06,13,11,00,16.40
2015,06,13,11,01,16.40
2015,06,13,11,02,16.40
2015,06,13,11,03,16.30
2015,06,13,11,04,16.40
2015,06,13,11,05,16.40
2015,06,13,11,06,16.40
2015,06,13,11,07,16.50
2015,06,13,11,08,16.50
2015,06,13,11,09,16.60
2015,06,13,11,10,16.60
2015,06,13,11,11,16.60
2015,06,13,11,12,16.60
2015,06,13,11,13,16.60
2015,06,13,11,14,16.60
2015,06,13,11,15,16.60
2015,06,13,11,16,16.60
2015,06,13,11,17,16.60
2015,06,13,11,18,16.50
2015,06,13,11,19,16.50
2015,06,13,11,20,16.50
2015,06,13,11,21,16.60
2015,06,13,11,22,16.60
2015,06,13,11,23,16.50
2015,06,13,11,24,16.50
2015,06,13,11,25,16.50
2015,06,13,11,26,16.50
2015,06,13,11,27,16.50
2015,06,13,11,28,16.60
2015,06,13,11,29,16.60
2015,06,13,11,30,16.70
2015,06,13,11,31,16.70
2015,06,13,11,32,16.70
2015,06,13,11,33,16.80
2015,06,13,11,34,16.80
2015,06,13,11,35,16.90
2015,06,13,11,36,16.90
2015,06,13,11,37,16.80
2015,06,13,11,38,16.80
2015,06,13,11,39,16.80
2015,06,13,11,40,16.80
2015,06,13,11,41,16.80
2015,06,13,11,42,16.70
2015,06,13,11,43,16.70
2015,06,13,11,44,16.60
2015,06,13,11,45,16.60
2015,06,13,11,46,16.60
2015,06,13,11,47,16.60
2015,06,13,11,48,16.60
2015,06,13,11,49,16.60
2015,06,13,11,50,16.60
2015,06,13,11,51,16.70
2015,06,13,11,52,16.70
2015,06,13,11,53,16.70
2015,06,13,11,54,16.70
2015,06,13,11,55,16.70
2015,06,13,11,56,16.70
2015,06,13,11,57,16.70
2015,06,13,11,58,16.70
2015,06,13,11,59,16.70
2015,06,13,12,00,16.70
2015,06,13,12,01,16.70
2015,06,13,12,02,16.80
2015,06,13,12,03,16.80
2015,06,13,12,04,16.90
2015,06,13,12,05,17.00
2015,06,13,12,06,17.10
2015,06,13,12,07,17.10
2015,06,13,12,08,17.20
2015,06,13,12,09,17.30
2015,06,13,12,10,17.30
2015,06,13,12,11,17.30
2015,06,13,12,12,17.30
2015,06,13,12,13,17.40
2015,06,13,12,14,17.40
2015,06,13,12,15,17.50
2015,06,13,12,16,17.50
2015,06,13,12,17,17.60
2015,06,13,12,18,17.60
2015,06,13,12,19,17.60
2015,06,13,12,20,17.60
2015,06,13,12,21,17.60
2015,06,13,12,22,17.60
2015,06,13,12,23,17.70
2015,06,13,12,24,17.70
2015,06,13,12,25,17.80
2015,06,13,12,26,17.90
2015,06,13,12,27,18.10
2015,06,13,12,28,18.10
2015,06,13,12,29,18.10
2015,06,13,12,30,18.10
2015,06,13,12,31,18.00
2015,06,13,12,32,17.90
2015,06,13,12,33,17.90
2015,06,13,12,34,17.90
2015,06,13,12,35,17.90
2015,06,13,12,36,18.00
2015,06,13,12,37,18.10
2015,06,13,12,38,18.10
2015,06,13,12,39,18.10
2015,06,13,12,40,18.10
2015,06,13,12,41,18.00
2015,06,13,12,42,18.00
2015,06,13,12,43,18.00
2015,06,13,12,44,18.00
2015,06,13,12,45,18.10
2015,06,13,12,46,18.20
2015,06,13,12,47,18.20
2015,06,13,12,48,18.30
2015,06,13,12,49,18.30
2015,06,13,12,50,18.30
2015,06,13,12,51,18.30
2015,06,13,12,52,18.40
2015,06,13,12,53,18.50
2015,06,13,12,54,18.50
2015,06,13,12,55,18.60
2015,06,13,12,56,18.70
2015,06,13,12,57,18.80
2015,06,13,12,58,18.90
2015,06,13,12,59,19.00
2015,06,13,13,00,19.00
2015,06,13,13,01,19.10
2015,06,13,13,02,19.20
2015,06,13,13,03,19.20
2015,06,13,13,04,19.20
2015,06,13,13,05,19.20
2015,06,13,13,06,19.20
2015,06,13,13,07,19.20
2015,06,13,13,08,19.20
2015,06,13,13,09,19.20
2015,06,13,13,10,19.20
2015,06,13,13,11,19.20
2015,06,13,13,12,19.20
2015,06,13,13,13,19.30
2015,06,13,13,14,19.20
2015,06,13,13,15,19.10
2015,06,13,13,16,19.10
2015,06,13,13,17,19.10
2015,06,13,13,18,19.10
2015,06,13,13,19,19.00
2015,06,13,13,20,18.90
2015,06,13,13,21,18.90
2015,06,13,13,22,19.00
2015,06,13,13,23,19.00
2015,06,13,13,24,19.10
2015,06,13,13,25,19.10
2015,06,13,13,26,19.10
2015,06,13,13,27,19.10
2015,06,13,13,28,19.20
2015,06,13,13,29,19.30
2015,06,13,13,30,19.40
2015,06,13,13,31,19.40
2015,06,13,13,32,19.50
2015,06,13,13,33,19.60
2015,06,13,13,34,19.50
2015,06,13,13,35,19.50
2015,06,13,13,36,19.50
2015,06,13,13,37,19.40
2015,06,13,13,38,19.40
2015,06,13,13,39,19.40
2015,06,13,13,40,19.40
2015,06,13,13,41,19.20
2015,06,13,13,42,19.10
2015,06,13,13,43,19.10
2015,06,13,13,44,19.10
2015,06,13,13,45,19.10
2015,06,13,13,46,19.20
2015,06,13,13,47,19.20
2015,06,13,13,48,19.20
2015,06,13,13,49,19.20
2015,06,13,13,50,19.30
2015,06,13,13,51,19.40
2015,06,13,13,52,19.40
2015,06,13,13,53,19.40
2015,06,13,13,54,19.40
2015,06,13,13,55,19.40
2015,06,13,13,56,19.40
2015,06,13,13,57,19.40
2015,06,13,13,58,19.40
2015,06,13,13,59,19.40
2015,06,13,14,00,19.40
2015,06,13,14,01,19.40
2015,06,13,14,02,19.40
2015,06,13,14,03,19.40
2015,06,13,14,04,19.50
2015,06,13,14,05,19.40
2015,06,13,14,06,19.40
2015,06,13,14,07,19.40
2015,06,13,14,08,19.50
2015,06,13,14,09,19.60
2015,06,13,14,10,19.60
2015,06,13,14,11,19.70
2015,06,13,14,12,19.70
2015,06,13,14,13,19.70
2015,06,13,14,14,19.70
2015,06,13,14,15,19.70
2015,06,13,14,16,19.70
2015,06,13,14,17,19.80
2015,06,13,14,18,19.90
2015,06,13,14,19,20.00
2015,06,13,14,20,20.10
2015,06,13,14,21,20.20
2015,06,13,14,22,20.20
2015,06,13,14,23,20.20
2015,06,13,14,24,20.20
2015,06,13,14,25,20.20
2015,06,13,14,26,20.10
2015,06,13,14,27,20.00
2015,06,13,14,28,20.00
2015,06,13,14,29,20.00
2015,06,13,14,30,20.00
2015,06,13,14,31,20.00
2015,06,13,14,32,20.00
2015,06,13,14,33,20.10
2015,06,13,14,34,20.10
2015,06,13,14,35,20.10
2015,06,13,14,36,20.10
2015,06,13,14,37,20.10
2015,06,13,14,38,20.10
2015,06,13,14,39,20.10
2015,06,13,14,40,20.20
2015,06,13,14,41,20.20
2015,06,13,14,42,20.20
2015,06,13,14,43,20.10
2015,06,13,14,44,20.10
2015,06,13,14,45,20.10
2015,06,13,14,46,20.10
2015,06,13,14,47,20.10
2015,06,13,14,48,20.10
2015,06,13,14,49,20.20
2015,06,13,14,50,20.20
2015,06,13,14,51,20.30
2015,06,13,14,52,20.30
2015,06,13,14,53,20.20
2015,06,13,14,54,20.20
2015,06,13,14,55,20.10
2015,06,13,14,56,20.10
2015,06,13,14,57,20.20
2015,06,13,14,58,20.20
2015,06,13,14,59,20.20
2015,06,13,15,00,20.20
2015,06,13,15,01,20.30
2015,06,13,15,02,20.40
2015,06,13,15,03,20.40
2015,06,13,15,04,20.40
2015,06,13,15,05,20.40
2015,06,13,15,06,20.40
2015,06,13,15,07,20.40
2015,06,13,15,08,20.30
2015,06,13,15,09,20.30
2015,06,13,15,10,20.30
2015,06,13,15,11,20.30
2015,06,13,15,12,20.20
2015,06,13,15,13,20.00
2015,06,13,15,14,19.70
2015,06,13,15,15,19.50
2015,06,13,15,16,19.30
2015,06,13,15,17,19.10
2015,06,13,15,18,19.00
2015,06,13,15,19,18.90
2015,06,13,15,20,18.70
2015,06,13,15,21,18.70
2015,06,13,15,22,18.60
2015,06,13,15,23,18.60
2015,06,13,15,24,18.60
2015,06,13,15,25,18.50
2015,06,13,15,26,18.40
2015,06,13,15,27,18.30
2015,06,13,15,28,18.20
2015,06,13,15,29,18.10
2015,06,13,15,30,18.10
2015,06,13,15,31,18.10
2015,06,13,15,32,18.00
2015,06,13,15,33,18.00
2015,06,13,15,34,18.00
2015,06,13,15,35,18.00
2015,06,13,15,36,17.90
2015,06,13,15,37,18.00
2015,06,13,15,38,17.90
2015,06,13,15,39,17.90
2015,06,13,15,40,17.90
2015,06,13,15,41,17.80
2015,06,13,15,42,17.70
2015,06,13,15,43,17.50
2015,06,13,15,44,17.40
2015,06,13,15,45,17.30
2015,06,13,15,46,17.30
2015,06,13,15,47,17.20
2015,06,13,15,48,17.10
2015,06,13,15,49,17.10
2015,06,13,15,50,17.00
2015,06,13,15,51,17.00
2015,06,13,15,52,17.10
2015,06,13,15,53,17.10
2015,06,13,15,54,17.20
2015,06,13,15,55,17.20
2015,06,13,15,56,17.30
2015,06,13,15,57,17.40
2015,06,13,15,58,17.40
2015,06,13,15,59,17.30
2015,06,13,16,00,17.30
2015,06,13,16,01,17.30
2015,06,13,16,02,17.20
2015,06,13,16,03,17.20
2015,06,13,16,04,17.20
2015,06,13,16,05,17.20
2015,06,13,16,06,17.10
2015,06,13,16,07,17.00
2015,06,13,16,08,16.90
2015,06,13,16,09,16.90
2015,06,13,16,10,16.80
2015,06,13,16,11,16.80
2015,06,13,16,12,16.70
2015,06,13,16,13,16.80
2015,06,13,16,14,16.70
2015,06,13,16,15,16.80
2015,06,13,16,16,16.70
2015,06,13,16,17,16.70
2015,06,13,16,18,16.70
2015,06,13,16,19,16.70
2015,06,13,16,20,16.70
2015,06,13,16,21,16.80
2015,06,13,16,22,16.80
2015,06,13,16,23,16.80
2015,06,13,16,24,16.70
2015,06,13,16,25,16.70
2015,06,13,16,26,16.80
2015,06,13,16,27,16.80
2015,06,13,16,28,16.80
2015,06,13,16,29,16.90
2015,06,13,16,30,16.90
2015,06,13,16,31,17.00
2015,06,13,16,32,17.00
2015,06,13,16,33,17.10
2015,06,13,16,34,17.10
2015,06,13,16,35,17.20
2015,06,13,16,36,17.20
2015,06,13,16,37,17.20
2015,06,13,16,38,17.20
2015,06,13,16,39,17.20
2015,06,13,16,40,17.30
2015,06,13,16,41,17.30
2015,06,13,16,42,17.30
2015,06,13,16,43,17.30
2015,06,13,16,44,17.30
2015,06,13,16,45,17.30
2015,06,13,16,46,17.30
2015,06,13,16,47,17.40
2015,06,13,16,48,17.40
2015,06,13,16,49,17.40
2015,06,13,16,50,17.30
2015,06,13,16,51,17.30
2015,06,13,16,52,17.30
2015,06,13,16,53,17.30
2015,06,13,16,54,17.20
2015,06,13,16,55,17.20
2015,06,13,16,56,17.20
2015,06,13,16,57,17.20
2015,06,13,16,58,17.30
2015,06,13,16,59,17.30
2015,06,13,17,00,17.40
2015,06,13,17,01,17.50
2015,06,13,17,02,17.60
2015,06,13,17,03,17.70
2015,06,13,17,04,17.80
2015,06,13,17,05,17.90
2015,06,13,17,06,17.90
2015,06,13,17,07,18.00
2015,06,13,17,08,18.10
2015,06,13,17,09,18.30
2015,06,13,17,10,18.40
2015,06,13,17,11,18.50
2015,06,13,17,12,18.50
2015,06,13,17,13,18.60
2015,06,13,17,14,18.60
2015,06,13,17,15,18.70
2015,06,13,17,16,18.80
2015,06,13,17,17,18.90
2015,06,13,17,18,19.00
2015,06,13,17,19,19.00
2015,06,13,17,20,19.10
2015,06,13,17,21,19.10
2015,06,13,17,22,19.10
2015,06,13,17,23,19.20